TimeEST,TemperatureF,Dew PointF,Humidity,Sea Level PressureIn,VisibilityMPH,Wind Direction,Wind SpeedMPH,Gust SpeedMPH,PrecipitationIn,Events,Conditions,WindDirDegrees,DateUTC
12:53 AM,34.0,30.0,85,30.29,7.0,NE,10.4,-,0.01,Rain,Light Rain,50,2014-02-12 05:53:00
1:53 AM,33.1,30.9,92,30.28,5.0,ENE,10.4,-,0.04,Rain,Rain,60,2014-02-12 06:53:00
2:00 AM,33.1,30.9,92,30.28,5.0,NE,8.1,-,0.01,Rain,Rain,50,2014-02-12 07:00:00
2:17 AM,33.1,30.9,92,30.27,5.0,NE,11.5,-,0.04,Rain,Rain,50,2014-02-12 07:17:00
2:28 AM,33.1,30.0,89,30.27,6.0,NE,11.5,-,0.05,Rain,Light Rain,50,2014-02-12 07:28:00
2:53 AM,33.1,30.0,89,30.27,5.0,NE,10.4,-,0.06,Rain,Rain,50,2014-02-12 07:53:00
3:02 AM,32.0,30.0,92,30.27,4.0,NNE,12.7,-,0.03,Rain,Heavy Rain,30,2014-02-12 08:02:00
3:16 AM,32.0,28.9,88,30.26,4.0,NE,15.0,-,0.08,,Overcast,50,2014-02-12 08:16:00
3:21 AM,32.0,28.9,88,30.26,4.0,NE,15.0,-,0.09,Rain,Light Freezing Rain,40,2014-02-12 08:21:00
3:53 AM,30.9,28.0,89,30.26,5.0,ENE,13.8,-,0.15,Rain,Light Freezing Rain,70,2014-02-12 08:53:00
4:53 AM,30.9,28.0,89,30.26,5.0,NE,10.4,-,0.12,Rain,Light Freezing Rain,50,2014-02-12 09:53:00
5:41 AM,30.9,28.0,89,30.25,5.0,ENE,13.8,-,0.07,Rain,Light Freezing Rain,60,2014-02-12 10:41:00
5:47 AM,30.2,28.4,93,30.26,6.0,NE,13.8,-,0.08,,Overcast,50,2014-02-12 10:47:00
5:53 AM,30.9,28.0,89,30.26,5.0,ENE,12.7,-,0.09,Rain,Light Freezing Rain,60,2014-02-12 10:53:00
6:21 AM,30.9,28.0,89,30.26,5.0,NE,13.8,-,0.05,Rain,Light Freezing Rain,50,2014-02-12 11:21:00
6:53 AM,30.9,28.0,89,30.26,6.0,ENE,16.1,23.0,0.12,Rain,Light Freezing Rain,60,2014-02-12 11:53:00
7:46 AM,30.9,28.0,89,30.25,6.0,NE,17.3,24.2,0.09,Rain,Light Freezing Rain,40,2014-02-12 12:46:00
7:53 AM,30.9,28.0,89,30.25,5.0,NE,20.7,25.3,0.10,Rain,Light Freezing Rain,40,2014-02-12 12:53:00
8:45 AM,30.9,28.9,92,30.23,2.0,NE,13.8,20.7,0.11,Rain,Light Freezing Rain,50,2014-02-12 13:45:00
8:53 AM,30.9,28.9,92,30.23,1.5,NE,10.4,-,0.14,Rain,Light Freezing Rain,50,2014-02-12 13:53:00
9:43 AM,30.9,28.9,92,30.23,1.2,NE,13.8,-,0.18,,Ice Pellets,40,2014-02-12 14:43:00
9:50 AM,30.2,28.4,93,30.25,1.2,ENE,10.4,-,0.21,,Ice Pellets,60,2014-02-12 14:50:00
9:53 AM,30.9,28.9,92,30.25,1.0,ENE,11.5,-,0.23,,Ice Pellets,60,2014-02-12 14:53:00
10:24 AM,32.0,30.0,92,30.20,1.5,ENE,10.4,-,0.12,,Ice Pellets,60,2014-02-12 15:24:00
10:36 AM,32.0,30.0,92,30.17,2.0,NE,15.0,25.3,0.15,,Ice Pellets,50,2014-02-12 15:36:00
10:43 AM,32.0,30.0,92,30.19,2.5,East,10.4,25.3,0.17,,Ice Pellets,80,2014-02-12 15:43:00
10:50 AM,32.0,30.2,93,30.20,3.0,East,8.1,-,0.18,,Ice Pellets,80,2014-02-12 15:50:00
10:53 AM,32.0,30.0,92,30.20,3.0,ENE,17.3,23.0,0.19,,Ice Pellets,60,2014-02-12 15:53:00
11:29 AM,32.0,30.0,92,30.20,2.5,NNE,12.7,21.9,0.05,,Ice Pellets,30,2014-02-12 16:29:00
11:53 AM,32.0,30.0,92,30.21,2.0,ENE,6.9,-,0.12,,Ice Pellets,60,2014-02-12 16:53:00
12:06 PM,32.0,30.9,96,30.18,2.0,NE,8.1,-,0.03,,Ice Pellets,50,2014-02-12 17:06:00
12:15 PM,32.0,30.0,92,30.18,3.0,NE,11.5,-,0.04,,Ice Pellets,50,2014-02-12 17:15:00
12:53 PM,32.0,30.9,96,30.12,2.5,NE,11.5,-,0.09,,Ice Pellets,50,2014-02-12 17:53:00
1:03 PM,32.0,30.9,96,30.11,4.0,ENE,8.1,-,0.01,,Ice Pellets,60,2014-02-12 18:03:00
1:53 PM,32.0,30.0,92,30.06,4.0,NNE,13.8,-,0.05,,Ice Pellets,30,2014-02-12 18:53:00
2:19 PM,32.0,30.0,92,30.02,5.0,NE,15.0,-,0.01,,Light Ice Pellets,50,2014-02-12 19:19:00
2:53 PM,32.0,28.9,88,30.00,6.0,NE,12.7,20.7,0.01,,Light Ice Pellets,50,2014-02-12 19:53:00
3:20 PM,32.0,28.9,88,29.98,2.5,NE,13.8,-,0.00,,Light Ice Pellets,40,2014-02-12 20:20:00
3:30 PM,30.9,28.9,92,29.96,6.0,NE,11.5,-,0.00,,Light Ice Pellets,40,2014-02-12 20:30:00
3:53 PM,30.9,28.9,92,29.97,10.0,NE,8.1,-,0.00,,Light Ice Pellets,50,2014-02-12 20:53:00
4:04 PM,30.9,28.9,92,29.97,3.0,NE,10.4,-,0.00,,Overcast,40,2014-02-12 21:04:00
4:24 PM,30.9,28.9,92,29.97,2.0,NE,12.7,20.7,0.00,,Overcast,50,2014-02-12 21:24:00
4:46 PM,30.9,28.9,92,29.96,1.5,NE,12.7,-,0.01,,Overcast,50,2014-02-12 21:46:00
4:53 PM,30.9,28.9,92,29.96,3.0,ENE,12.7,-,0.01,,Overcast,60,2014-02-12 21:53:00
5:50 PM,30.2,28.4,93,29.93,2.0,NE,12.7,-,0.01,,Overcast,50,2014-02-12 22:50:00
5:53 PM,30.9,28.9,92,29.94,2.5,NE,10.4,-,0.01,,Overcast,50,2014-02-12 22:53:00
6:09 PM,30.9,28.9,92,29.93,4.0,ENE,13.8,-,0.00,,Overcast,60,2014-02-12 23:09:00
6:17 PM,30.9,28.9,92,29.93,4.0,NE,12.7,-,0.00,Rain,Light Freezing Rain,50,2014-02-12 23:17:00
6:53 PM,30.9,28.9,92,29.92,3.0,NE,10.4,-,0.00,,Overcast,50,2014-02-12 23:53:00
7:53 PM,30.9,28.9,92,29.88,7.0,NE,8.1,-,0.00,,Overcast,50,2014-02-13 00:53:00
8:06 PM,30.9,28.9,92,29.87,8.0,NE,9.2,-,N/A,,Overcast,50,2014-02-13 01:06:00
8:31 PM,30.9,28.9,92,29.87,3.0,NE,10.4,-,0.01,,Overcast,40,2014-02-13 01:31:00
8:53 PM,30.9,28.9,92,29.85,7.0,NE,9.2,-,0.01,,Overcast,40,2014-02-13 01:53:00
9:21 PM,30.9,30.0,96,29.84,2.5,NNE,6.9,-,0.00,,Overcast,30,2014-02-13 02:21:00
9:32 PM,30.9,30.0,96,29.83,2.5,NNE,8.1,-,0.00,Rain,Light Freezing Rain,20,2014-02-13 02:32:00
9:49 PM,30.2,30.2,100,29.84,3.0,North,9.2,-,0.00,Rain,Light Freezing Rain,10,2014-02-13 02:49:00
9:53 PM,30.9,30.0,96,29.85,2.5,North,11.5,-,0.00,Rain,Light Freezing Rain,10,2014-02-13 02:53:00
10:08 PM,30.9,30.0,96,29.84,3.0,North,11.5,-,0.01,Snow,Light Snow,350,2014-02-13 03:08:00
10:19 PM,30.9,30.0,96,29.84,2.5,North,10.4,-,0.02,Snow,Light Snow,350,2014-02-13 03:19:00
10:27 PM,30.9,30.0,96,29.82,1.8,North,9.2,-,0.06,Rain,Light Freezing Rain,360,2014-02-13 03:27:00
10:33 PM,30.9,30.0,96,29.82,2.0,North,9.2,-,0.10,Rain,Light Freezing Rain,10,2014-02-13 03:33:00
10:36 PM,30.9,30.0,96,29.82,2.5,North,9.2,-,0.10,Rain,Light Freezing Rain,10,2014-02-13 03:36:00
10:39 PM,30.9,30.0,96,29.81,4.0,North,9.2,-,0.10,Rain,Light Freezing Rain,10,2014-02-13 03:39:00
10:47 PM,30.2,30.2,100,29.80,3.0,NNE,12.7,-,0.13,,Overcast,20,2014-02-13 03:47:00
10:48 PM,30.9,30.0,96,29.81,3.0,NNE,12.7,-,0.13,,Overcast,30,2014-02-13 03:48:00
11:43 PM,32.0,30.0,92,29.78,5.0,North,12.7,-,0.18,,Overcast,10,2014-02-13 04:43:00
11:53 PM,32.0,30.0,92,29.78,3.0,NNE,9.2,-,0.22,,Overcast,20,2014-02-13 04:53:00